This demonstration page uses our WeatherBlox Daily Observations layout. Learn more.

Left ArrowRight Arrow

34.74481, -87.66753

Hourly Observations for December 16, 2019

Temp ( °F °C ) Dew Point ( °F °C ) Humidity (%) Winds ( mph kmh ) Pressure ( in mb ) Visibility ( mi km ) Precip ( " mm )
12:53 am 00:53 Cloudy 64 17.8 58 14.4 81 81 SSW 16 26 29.94 1014 10 16 0.00 0.00
1:13 am 01:13 Cloudy 64 17.8 58 14.4 81 81 SSW 16 26 29.94 1014 10 16 0.00 0.00
1:53 am 01:53 Mostly Cloudy 64 17.8 58 14.4 81 81 SSW 15 24 29.94 1014 10 16 0.00 0.00
2:14 am 02:14 Mostly Cloudy 64 17.8 58 14.4 81 81 SSW 15 24 29.95 1014 10 16 0.00 0.00
2:53 am 02:53 Mostly Cloudy 64 17.8 58 14.4 81 81 SSW 15 24 29.96 1014 10 16 0.00 0.00
3:53 am 03:53 Mostly Cloudy 64 17.8 58 14.4 81 81 S 16 26 29.94 1014 10 16 0.00 0.00
4:53 am 04:53 Mostly Cloudy 64 17.8 58 14.4 81 81 SSW 13 20 29.95 1014 10 16 0.00 0.00
5:53 am 05:53 Mostly Cloudy 64 17.8 59 15 84 84 S 14 22 29.95 1014 10 16 0.00 0.00
6:53 am 06:53 Cloudy 65 18.3 60 15.6 84 84 S 14 22 29.96 1015 10 16 0.00 0.00
7:35 am 07:35 Mostly Cloudy 66 18.9 60 15.6 81 81 S 14 22 29.96 1015 10 16 0.00 0.00
7:53 am 07:53 Mostly Cloudy 66 18.9 60 15.6 81 81 S 13 20 29.96 1014 10 16 0.00 0.00
8:40 am 08:40 Cloudy 68 20 61 16.1 78 78 S 13 20 29.96 1014 10 16 0.00 0.00
8:53 am 08:53 Cloudy 68 20 60 15.6 76 76 S 13 20 29.95 1014 10 16 0.00 0.00
9:41 am 09:41 Mostly Cloudy 70 21.1 60 15.6 71 71 S 16 26 29.95 1014 10 16 0.00 0.00
9:53 am 09:53 Cloudy 70 21.1 60 15.6 71 71 S 22 35 29.95 1014 10 16 0.00 0.00
10:10 am 10:10 Cloudy 70 21.1 60 15.6 71 71 SSW 18 30 29.95 1014 10 16 0.00 0.00
10:53 am 10:53 Cloudy 70 21.1 60 15.6 71 71 S 16 26 29.93 1014 10 16 0.00 0.00
11:38 am 11:38 Mostly Cloudy 72 22.2 60 15.6 66 66 S 15 24 29.88 1012 10 16 0.00 0.00
11:53 am 11:53 Partly Cloudy 72 22.2 60 15.6 66 66 S 17 28 29.88 1012 10 16 0.00 0.00
12:53 pm 12:53 Mostly Cloudy 72 22.2 60 15.6 66 66 S 16 26 29.84 1011 10 16 0.00 0.00
1:53 pm 13:53 Mostly Cloudy 73 22.8 60 15.6 64 64 S 14 22 29.83 1010 10 16 0.00 0.00
2:53 pm 14:53 Cloudy 73 22.8 60 15.6 64 64 S 15 24 29.81 1009 10 16 0.00 0.00
3:53 pm 15:53 Cloudy with Light Rain 71 21.7 61 16.1 71 71 S 10 17 29.80 1009 9 14 0.01 0.25
4:43 pm 16:43 Mostly Cloudy with Nearby Thunderstorms 71 21.7 61 16.1 71 71 S 13 20 29.77 1008 10 16 0.00 0.00
4:53 pm 16:53 Mostly Cloudy with Thunderstorms 71 21.7 61 16.1 71 71 S 13 20 29.77 1008 10 16 0.00 0.00
5:04 pm 17:04 Cloudy with Strong Thunderstorms 69 20.6 63 17.2 81 81 S 9 15 29.84 1010 2 3 0.25 6.35
5:16 pm 17:16 Cloudy with Thunderstorms 63 17.2 57 13.9 81 81 NW 15 24 29.87 1012 3 5 0.41 10.41
5:24 pm 17:24 Cloudy with Thunderstorms 62 16.7 57 13.9 84 84 WNW 10 17 29.87 1012 8 13 0.42 10.67
5:34 pm 17:34 Cloudy with Nearby Thunderstorms 62 16.7 57 13.9 84 84 WNW 7 11 29.86 1011 7 11 0.45 11.43
5:53 pm 17:53 Cloudy with Strong Thunderstorms 61 16.1 58 14.4 90 90 Calm 29.86 1011 4 6 0.52 13.21
6:10 pm 18:10 Cloudy with Nearby Thunderstorms 61 16.1 58 14.4 90 90 SSE 9 15 29.87 1011 5 8 0.06 1.52
6:41 pm 18:41 Mostly Cloudy with Rain 62 16.7 59 15 90 90 SE 13 20 29.78 1009 10 16 0.13 3.30
6:53 pm 18:53 Mostly Cloudy with Light Rain 62 16.7 59 15 90 90 S 13 20 29.83 1010 10 16 0.13 3.30
7:53 pm 19:53 Mostly Cloudy 62 16.7 59 15 90 90 S 7 11 29.84 1010 10 16 0.00 0.00
8:53 pm 20:53 Cloudy 63 17.2 59 15 87 87 SSE 7 11 29.80 1009 10 16 0.00 0.00
9:53 pm 21:53 Cloudy 63 17.2 60 15.6 90 90 SW 6 9 29.80 1009 10 16 0.00 0.00
10:21 pm 22:21 Cloudy 63 17.2 60 15.6 90 90 S 7 11 29.79 1009 10 16 0.00 0.00
10:53 pm 22:53 Cloudy 63 17.2 60 15.6 90 90 SW 7 11 29.77 1008 10 16 0.00 0.00
11:23 pm 23:23 Cloudy with Mist and Fog 56 13.3 53 11.7 90 90 WNW 15 24 29.81 1010 6 10 0.00 0.00
11:33 pm 23:33 Cloudy with Mist and Fog 54 12.2 52 11.1 93 93 WNW 21 33 29.82 1010 5 8 0.00 0.00
11:53 pm 23:53 Cloudy with Mist and Fog 50 10 47 8.3 89 89 WNW 24 39 29.83 1010 3 5 0.00 0.00

Powered by AerisWeather